This is the latest recevied weather packets stored in our database for station/object KI7MOQ. If no packets are shown the sender has not sent any weather packets the latest 10 day(s).
| Time | Temp. | Humidity | Pressure | Rain* | Wind** | Luminosity | Snow |
|---|---|---|---|---|---|---|---|
| 1778024352 | 16.67° C | 73% | 1018.3 hPa | 0 mm | - | 31 W/m² | - |
| 1778024050 | 16.67° C | 73% | 1018.2 hPa | 0 mm | - | 32 W/m² | - |
| 1778023747 | 17.22° C | 73% | 1018.4 hPa | 0 mm | - | 33 W/m² | - |
| 1778023445 | 17.22° C | 72% | 1018.4 hPa | 0 mm | - | 36 W/m² | - |
| 1778023141 | 17.22° C | 72% | 1018.3 hPa | 0 mm | - | 40 W/m² | - |
| 1778022839 | 17.22° C | 72% | 1018.3 hPa | 0 mm | - | 44 W/m² | - |
| 1778022537 | 17.22° C | 73% | 1018.2 hPa | 0 mm | - | 51 W/m² | - |
| 1778022235 | 17.22° C | 73% | 1018.4 hPa | 0 mm | - | 47 W/m² | - |
| 1778021931 | 17.22° C | 74% | 1018.3 hPa | 0 mm | - | 40 W/m² | - |
| 1778021628 | 17.22° C | 73% | 1018.4 hPa | 0 mm | - | 43 W/m² | - |
| 1778021323 | 17.22° C | 73% | 1018.4 hPa | 0 mm | - | 38 W/m² | - |
| 1778021021 | 17.22° C | 72% | 1018.4 hPa | 0 mm | - | 44 W/m² | - |
| 1778020718 | 17.22° C | 72% | 1018.4 hPa | 0 mm | - | 53 W/m² | - |
| 1778020415 | 17.22° C | 72% | 1018.4 hPa | 0 mm | - | 54 W/m² | - |
| 1778020110 | 17.22° C | 72% | 1018.5 hPa | 0 mm | - | 68 W/m² | - |
| 1778019806 | 17.22° C | 71% | 1018.6 hPa | 0 mm | - | 67 W/m² | - |
| 1778019504 | 17.22° C | 72% | 1018.5 hPa | 0 mm | - | 75 W/m² | - |
| 1778019200 | 17.22° C | 73% | 1018.7 hPa | 0 mm | - | 80 W/m² | - |
| 1778018898 | 16.67° C | 73% | 1018.6 hPa | 0 mm | - | 88 W/m² | - |
| 1778018594 | 17.22° C | 71% | 1018.5 hPa | 0 mm | - | 93 W/m² | - |
| 1778018293 | 17.22° C | 72% | 1018.6 hPa | 0 mm | - | 96 W/m² | - |
| 1778017990 | 17.22° C | 73% | 1018.6 hPa | 0 mm | - | 98 W/m² | - |
| 1778017688 | 17.22° C | 73% | 1018.7 hPa | 0 mm | - | 94 W/m² | - |
| 1778017385 | 17.22° C | 73% | 1018.6 hPa | 0 mm | - | 98 W/m² | - |
| 1778017082 | 17.22° C | 73% | 1018.7 hPa | 0 mm | - | 89 W/m² | - |
* Rain latest hour (hover to see other rain measurements)
** Current wind speed in m/s (hover to see current wind gust speed)